Theta_e
295 297 298 299 299 299 301 302 304 305 306 307 308 311 314 319 319 321 323 326 329 331 331 331 332 333 334 334 334 334 334 334 334 334 334 334 335 334 331 332 334 338 341 342 344 344 345 345 345 345 345 345 344 344 344 343 342 342 341 341 341 340 341 341 341 340 340 340 339 339 339 340 338 339 339 338 338 338 338 338 337 337 337 336 336
292 295 296 297 298 297 298 299 301 303 304 304 306 308 310 316 317 319 318 320 322 323 325 328 330 330 332 332 333 334 334 334 333 334 334 334 335 335 330 329 329 332 335 339 342 343 344 344 344 345 344 345 344 344 343 343 342 342 342 341 340 339 339 341 342 341 341 339 339 339 339 339 339 339 339 338 338 338 338 337 337 337 336 337 336
290 292 294 294 296 296 296 297 298 299 302 302 305 307 309 311 314 317 316 316 317 318 319 322 325 328 329 329 331 332 334 334 333 333 333 334 334 334 334 329 329 331 333 336 339 341 342 342 343 343 343 344 344 345 344 343 343 343 341 340 340 340 340 339 341 342 340 340 340 340 340 340 339 339 339 339 339 338 337 337 337 337 337 337 337
289 290 292 291 293 294 293 294 295 297 299 300 301 304 306 308 311 312 317 315 316 315 317 319 319 320 322 324 324 328 331 332 334 334 334 333 333 334 334 334 329 328 330 333 336 338 339 340 340 341 343 343 343 344 344 343 343 343 342 342 342 343 342 340 338 340 341 340 340 340 340 338 339 339 339 339 339 339 337 337 337 337 337 337 336
287 289 290 289 290 291 290 291 293 295 297 298 299 299 301 303 306 308 312 314 312 312 314 316 317 318 320 320 321 322 324 327 330 331 332 334 334 334 334 333 333 329 328 329 331 334 337 338 339 340 342 342 343 343 343 343 343 343 343 343 343 343 342 341 340 339 340 340 340 340 339 338 338 339 338 338 339 339 338 338 337 337 337 336 336
286 287 287 287 287 288 288 288 291 293 295 296 296 297 297 299 302 304 306 311 310 308 308 309 312 316 317 318 320 321 322 323 325 327 329 330 332 332 333 333 332 332 332 329 328 329 334 336 338 340 341 342 343 343 343 343 343 343 343 343 343 343 342 341 342 340 339 338 337 337 339 338 338 339 339 339 339 339 338 337 338 337 337 337 337
285 285 285 285 285 286 286 287 290 291 292 293 293 294 295 295 298 299 302 305 309 306 305 306 308 312 314 315 317 319 320 322 324 326 328 329 329 330 331 331 332 331 331 332 328 327 328 332 336 338 340 340 341 342 343 343 343 343 343 342 342 342 341 341 341 341 340 339 338 338 337 336 338 339 338 339 338 338 338 338 338 337 337 337 336
285 285 284 284 284 284 285 286 288 289 289 290 291 291 292 293 295 298 298 301 304 302 303 302 305 309 312 312 316 318 321 322 323 324 326 327 328 329 329 330 331 332 327 331 330 329 328 329 332 335 337 338 339 337 340 341 342 342 341 341 341 341 340 340 340 340 340 339 337 336 337 337 338 338 338 338 338 338 338 338 337 336 337 337 336
284 284 284 284 283 284 284 285 287 286 287 287 288 289 289 290 292 296 296 299 301 299 298 299 302 307 309 309 313 318 317 317 318 318 321 320 322 325 325 325 324 322 325 324 326 325 320 318 319 323 327 328 329 334 337 337 339 340 340 340 340 340 340 339 338 340 339 338 337 336 335 335 337 337 336 336 338 338 338 338 337 337 337 337 336
283 284 284 284 284 284 284 285 286 285 285 285 286 287 288 288 289 292 294 297 299 297 296 297 300 305 305 307 310 318 315 314 315 315 317 318 317 317 318 319 320 320 320 319 319 319 317 316 316 316 316 317 320 323 329 333 334 334 336 338 338 339 339 339 339 339 339 337 337 336 335 335 336 337 337 336 337 336 337 337 338 338 337 337 336
283 284 283 283 282 283 283 284 286 285 284 284 284 286 286 287 287 289 291 294 297 296 295 296 300 301 302 304 309 317 316 313 312 313 315 317 316 316 316 315 315 315 317 318 317 317 315 314 313 313 313 314 316 319 322 323 328 331 332 333 335 336 336 337 338 337 337 335 334 334 334 334 336 335 334 334 335 336 336 336 336 336 337 337 337
282 283 282 283 282 282 283 284 285 284 283 283 283 284 285 285 286 287 288 291 295 294 293 294 298 297 299 303 308 315 316 313 310 308 314 312 317 316 314 314 312 311 312 316 314 314 314 313 312 311 311 312 314 316 318 319 320 323 326 329 331 332 333 334 335 335 334 334 333 333 334 334 334 335 334 334 335 334 334 336 335 335 336 337 337
282 282 281 282 281 282 282 282 283 284 283 283 283 284 285 285 285 286 286 287 290 291 291 293 294 293 296 301 306 313 314 311 308 305 309 311 313 316 313 311 309 309 310 314 311 311 313 312 310 310 310 311 313 315 316 317 318 322 325 326 327 328 329 330 330 330 330 331 331 331 333 333 333 334 334 334 334 334 335 335 335 334 334 336 338
281 281 281 280 280 280 281 281 282 282 282 283 283 285 284 284 284 284 285 285 286 289 288 291 290 289 290 295 303 305 313 308 303 301 308 308 307 315 311 308 305 306 310 310 307 309 311 309 308 308 308 310 312 313 314 316 317 318 320 321 322 324 325 327 327 327 327 327 327 328 329 330 332 332 333 333 334 334 334 334 334 335 334 334 336
279 281 280 280 279 279 280 280 281 282 280 280 280 281 282 283 283 283 283 284 285 288 286 288 288 288 292 294 293 295 302 302 300 299 307 303 306 310 308 304 302 304 309 305 305 306 306 306 306 306 307 309 312 313 313 314 316 317 318 316 316 320 323 324 324 324 324 325 325 326 327 328 328 330 331 332 332 332 334 334 333 333 334 334 334
278 279 280 279 279 279 279 279 280 281 280 279 279 279 280 282 282 283 283 281 282 284 286 285 287 285 285 288 290 292 290 291 292 296 303 299 305 304 306 300 300 301 307 301 302 304 303 304 304 305 306 309 312 312 312 311 311 313 313 312 314 316 319 322 322 323 322 323 323 324 325 326 326 327 328 329 330 332 332 332 333 333 333 333 333
278 278 280 279 279 278 278 279 279 280 280 278 278 279 280 281 282 282 281 281 281 283 284 285 285 286 284 286 286 287 286 287 289 294 295 295 301 300 304 298 297 299 302 299 301 302 301 301 303 304 306 308 311 309 307 305 306 307 307 310 314 315 317 320 321 321 322 323 323 323 324 324 325 325 326 327 327 328 330 331 332 332 332 332 332
278 277 278 280 278 278 278 278 278 280 280 278 278 279 279 280 281 281 281 282 281 281 281 283 284 285 285 285 286 285 284 285 289 284 289 295 296 297 300 296 295 295 298 296 298 298 299 300 302 304 306 308 306 304 303 302 303 304 304 304 311 314 316 318 319 320 321 322 322 323 323 323 324 324 324 325 326 327 328 329 330 331 331 331 332
277 277 277 278 278 278 277 278 278 279 279 277 277 277 278 279 282 281 281 283 281 280 281 280 282 283 284 283 284 285 284 285 282 281 279 286 290 292 291 289 289 291 292 292 295 295 296 299 301 303 306 302 302 300 300 299 299 300 301 304 308 311 314 316 318 319 320 321 321 321 321 321 322 322 323 324 324 325 326 327 328 329 329 330 331
277 276 276 277 278 277 277 277 277 278 279 277 277 277 278 279 280 281 281 281 281 280 280 281 279 279 283 282 282 283 282 284 283 278 278 278 281 286 286 286 286 287 287 288 289 289 293 298 300 304 303 302 299 297 296 297 297 296 296 300 304 307 310 313 316 318 319 320 320 320 319 319 320 320 321 322 323 323 324 324 325 327 328 329 329
276 276 275 276 277 277 276 276 276 277 278 277 276 277 277 277 278 279 279 280 281 281 281 280 280 279 280 280 281 280 280 280 280 278 277 277 277 278 279 282 283 284 285 286 286 288 292 298 299 304 302 300 297 294 294 295 295 294 295 298 301 304 306 310 314 316 317 318 318 318 318 318 318 319 320 320 321 321 322 323 324 325 325 327 327
275 275 274 275 275 276 276 275 275 277 277 275 276 276 276 276 277 278 279 278 280 280 281 281 281 280 280 280 278 279 279 278 277 277 277 278 275 275 277 277 276 280 283 283 285 287 292 294 298 302 301 298 295 292 292 293 293 293 293 296 298 301 304 307 311 313 315 316 316 316 316 317 318 318 318 318 319 320 320 321 322 323 324 324 325
274 274 274 274 274 275 275 275 276 276 276 275 275 275 275 276 277 278 278 278 278 279 280 280 280 280 279 279 278 278 278 277 276 277 276 274 275 275 276 277 277 277 280 282 284 286 288 288 299 297 300 296 292 290 289 290 292 292 293 294 297 299 302 305 308 311 312 313 315 315 315 316 316 317 317 317 318 319 320 320 320 321 321 322 323
273 273 272 273 274 273 274 274 274 274 274 274 274 274 275 275 276 277 276 277 278 278 278 278 279 279 279 279 279 279 279 279 279 278 277 276 276 275 275 277 277 277 280 281 283 285 285 287 297 291 296 292 289 288 287 288 289 292 291 292 294 297 301 304 306 309 310 312 313 314 314 314 315 315 315 316 317 317 318 318 319 319 319 320 321
271 271 271 272 273 272 272 272 272 273 274 274 274 274 274 274 275 275 275 276 277 276 276 277 278 278 278 279 279 279 279 280 279 278 278 278 277 275 276 277 275 276 278 279 279 283 284 289 288 287 293 288 287 286 286 286 287 289 291 291 293 295 297 300 302 305 307 309 311 311 312 313 313 314 314 314 315 316 316 317 317 318 318 318 318
270 271 271 272 272 272 272 272 272 273 273 273 273 273 274 273 274 274 274 275 276 276 276 277 278 277 278 277 278 278 278 279 279 278 277 277 276 275 275 276 276 275 277 278 279 279 281 284 286 286 289 285 285 285 285 285 285 289 290 289 290 293 295 297 299 303 305 306 309 310 310 311 312 312 313 313 313 314 314 315 315 316 316 316 317
270 271 272 271 271 271 272 271 272 272 272 272 273 272 272 273 274 274 274 275 274 275 275 276 276 276 276 277 277 277 278 278 278 278 278 277 277 276 275 273 273 275 275 277 277 277 278 281 284 285 285 284 284 284 284 284 286 288 289 287 287 290 292 294 296 299 303 305 307 307 307 309 310 311 311 311 311 312 312 313 313 314 314 315 316
270 271 270 270 270 270 271 270 271 271 271 272 271 271 272 272 272 272 272 275 274 274 274 275 275 275 276 276 276 276 277 277 278 278 277 278 277 277 276 274 272 271 274 273 275 276 280 279 281 283 283 283 283 283 285 284 284 288 288 286 286 287 290 292 295 297 299 301 303 304 305 306 307 308 309 309 310 311 311 311 312 313 314 315 316
271 271 270 270 270 270 270 270 270 270 270 271 271 271 271 271 271 271 271 273 273 273 274 274 274 275 275 275 275 275 275 277 277 277 277 277 277 276 276 275 274 272 270 271 273 274 277 279 277 280 282 282 282 283 282 282 284 286 285 285 285 285 289 291 294 295 295 297 300 302 303 304 305 306 306 307 309 310 310 310 311 312 313 314 314
270 270 269 269 269 270 269 269 270 270 270 270 270 270 270 270 271 271 271 272 272 272 273 274 273 274 274 274 274 274 275 275 275 276 276 276 275 276 276 276 276 273 272 271 271 275 275 278 278 278 280 280 281 281 282 282 285 285 284 284 284 285 289 291 292 292 293 294 297 299 301 302 304 305 305 306 308 308 309 310 310 310 310 311 312
269 268 268 268 268 268 269 269 269 269 269 269 270 269 270 269 270 270 271 271 271 271 272 273 273 273 272 272 273 273 274 274 274 275 275 275 275 275 275 276 275 274 273 273 270 274 277 274 277 279 279 279 280 280 280 281 283 284 283 283 284 287 289 289 290 291 292 293 294 295 297 300 302 303 303 306 307 307 307 307 308 307 306 307 308
268 268 268 268 268 268 268 268 269 268 268 269 269 269 269 269 269 269 270 271 270 270 271 272 273 272 272 272 272 273 273 273 273 274 274 274 275 275 274 274 274 274 274 272 271 270 275 275 276 277 278 278 279 278 279 280 282 285 282 283 284 288 286 286 289 290 290 292 292 292 293 295 298 300 301 304 305 305 305 306 305 304 302 302 302
268 267 267 267 268 268 267 268 268 268 268 268 268 268 268 268 268 269 270 270 270 270 271 271 272 272 272 272 272 272 273 272 272 273 273 273 274 274 273 273 272 273 273 272 271 271 273 276 276 275 277 277 276 278 278 278 279 281 283 282 283 283 283 284 285 288 290 290 290 290 292 293 293 294 296 298 300 300 301 301 300 300 299 298 300
267 267 267 267 267 267 267 267 267 267 267 267 268 268 267 267 268 269 269 269 269 270 271 270 271 271 271 271 271 272 273 272 272 272 272 272 272 271 271 272 272 272 274 272 271 271 270 273 273 275 275 277 275 278 277 278 278 280 279 280 282 282 282 282 284 285 287 287 288 289 290 290 290 291 293 295 296 296 297 296 295 295 296 296 297
267 267 266 267 267 267 266 267 267 267 267 267 267 267 267 267 267 268 269 269 269 269 270 270 270 271 271 271 271 272 272 271 271 271 272 271 272 271 271 272 272 272 273 273 272 270 270 270 273 273 274 275 275 276 278 278 279 279 278 279 280 281 282 282 282 282 284 285 287 287 288 288 289 291 293 293 294 293 293 293 293 294 294 294 295
265 266 266 266 266 266 266 266 266 266 266 266 267 267 267 267 267 267 268 269 269 270 270 270 270 271 270 270 270 271 271 271 270 271 271 271 271 271 271 271 272 272 272 272 272 270 270 269 271 272 273 273 274 276 277 277 277 277 278 278 279 279 280 280 280 280 282 284 285 285 286 287 289 291 291 291 290 290 290 291 291 291 292 293 294
265 265 266 266 265 265 265 265 265 265 266 266 266 266 267 267 267 268 268 269 269 270 270 270 271 270 270 270 270 271 271 270 270 270 270 270 271 271 270 271 271 272 272 272 271 271 270 269 270 272 273 273 275 275 276 275 275 275 276 276 277 277 277 278 279 280 281 282 283 283 285 287 288 287 287 287 288 288 288 288 289 290 290 292 293
265 265 265 265 265 265 265 265 265 265 265 265 266 266 266 267 267 268 269 269 269 270 270 270 270 270 270 270 270 270 270 269 269 270 270 270 271 271 271 271 271 271 271 271 271 271 271 270 270 270 272 272 273 274 275 274 273 272 273 274 275 276 275 275 276 278 278 278 278 280 283 284 284 285 285 285 286 286 286 286 287 288 290 291 293
263 263 264 264 265 265 265 265 265 265 265 265 265 265 266 267 268 268 269 269 269 270 270 270 270 270 271 270 270 270 269 269 270 270 270 270 271 270 271 271 271 270 270 270 271 270 270 270 271 271 271 273 273 271 273 273 272 272 272 272 272 273 274 274 274 276 276 277 280 282 282 281 282 281 283 284 284 284 285 285 286 288 290 291 293
263 263 263 263 264 264 264 265 265 265 265 265 265 265 266 268 268 269 269 269 269 269 269 270 270 270 270 270 270 270 269 270 271 271 271 271 271 270 271 271 271 270 270 270 270 270 270 270 270 270 271 271 271 272 272 272 271 271 273 272 270 270 272 274 274 274 275 277 277 278 280 280 280 280 281 282 282 283 284 285 286 288 290 292 292
264 263 263 263 263 263 264 264 264 264 264 264 265 266 267 269 269 269 269 269 269 269 269 269 270 270 269 269 269 269 271 273 274 273 273 273 271 270 270 271 271 270 270 270 270 270 270 270 269 270 270 269 270 270 269 269 269 269 271 272 271 272 273 273 274 276 277 276 277 277 277 278 277 277 277 277 278 281 281 285 286 288 290 290 291
263 263 263 263 263 263 263 263 263 264 264 264 266 269 271 270 269 269 269 269 269 269 268 268 268 268 268 268 269 271 272 272 272 273 273 274 274 272 271 271 271 270 270 270 270 270 269 269 269 269 268 268 269 269 269 270 271 272 271 271 271 271 272 272 273 275 277 276 274 273 274 276 276 276 276 276 278 280 281 282 284 286 286 288 288
263 263 263 262 263 263 263 262 262 263 264 264 268 270 271 272 270 269 269 268 269 268 268 268 267 267 267 267 268 269 270 270 270 272 273 273 273 273 274 274 274 272 270 269 269 270 269 269 269 269 268 268 269 270 270 271 271 271 271 271 271 271 270 269 268 272 276 274 273 272 272 275 276 274 275 277 278 280 281 281 284 285 286 287 289
263 263 262 262 262 262 263 262 262 263 263 266 268 269 271 272 272 270 269 269 268 268 267 267 266 266 266 266 267 268 268 268 269 269 270 271 272 273 274 274 274 274 274 272 270 269 269 269 269 269 269 269 269 270 270 271 271 271 271 271 271 270 270 269 269 269 272 275 272 271 271 274 276 275 275 276 277 279 279 281 283 285 286 288 290
262 262 262 262 262 262 262 262 262 262 262 266 268 269 270 271 271 271 269 268 267 267 266 266 266 266 266 266 266 267 267 269 269 268 268 269 271 273 273 273 273 274 274 275 275 272 271 269 268 268 269 269 269 269 271 271 272 270 270 270 270 270 270 269 269 270 272 274 272 270 270 273 275 273 273 275 277 277 278 281 282 285 287 289 289
262 262 262 262 262 262 262 262 262 262 262 265 267 269 270 271 271 271 268 267 266 266 266 266 266 266 266 266 266 266 267 267 268 268 269 269 270 270 270 270 270 271 273 273 273 272 272 269 268 267 269 270 269 270 271 272 270 269 269 269 270 270 269 269 271 271 272 274 271 271 270 271 273 272 271 273 276 276 276 280 284 285 284 285 286
261 261 261 261 262 262 262 262 261 261 262 266 268 269 270 270 271 270 267 266 266 265 266 266 266 266 266 266 266 266 267 267 268 269 269 270 269 269 269 269 270 270 269 269 269 269 269 269 269 269 269 270 270 271 271 271 271 271 271 270 270 270 270 271 271 271 271 273 272 271 267 270 272 271 271 272 274 274 275 278 280 281 282 283 285
261 262 262 262 261 261 261 261 261 261 261 266 267 268 269 270 270 267 266 265 265 265 265 266 266 266 266 266 266 266 267 267 270 272 271 271 269 269 268 269 268 268 268 270 272 272 270 269 270 270 270 271 273 271 272 271 271 271 271 271 271 270 269 267 267 269 269 271 272 270 268 269 271 270 270 273 273 272 273 274 278 281 282 284 285
261 260 261 261 261 261 261 261 260 260 261 263 266 267 268 269 268 266 266 265 265 265 265 265 266 266 266 266 267 267 267 268 270 272 272 272 269 268 268 267 267 266 266 266 269 271 272 273 273 273 273 273 273 274 274 274 272 271 270 268 267 268 266 264 265 266 266 269 271 271 269 267 270 271 270 271 271 271 272 274 276 280 282 283 282
259 259 259 258 259 260 260 260 260 260 260 262 265 266 268 269 268 266 265 264 264 264 264 265 266 266 266 268 268 267 267 268 271 272 272 271 268 268 267 266 265 263 263 265 265 267 271 271 271 271 270 271 271 272 271 272 273 272 268 265 266 267 265 265 264 265 267 268 269 271 268 267 270 270 268 270 272 272 274 275 276 277 279 279 280
258 258 258 258 258 258 260 260 261 260 260 261 265 266 267 268 267 266 265 264 264 264 264 264 265 266 266 267 268 269 269 269 271 272 272 271 268 268 267 265 263 262 263 264 265 266 266 264 263 263 264 265 265 264 265 270 271 269 267 267 267 266 265 265 265 265 264 266 269 272 267 266 268 269 270 268 267 270 273 273 273 274 275 275 276
Wind_Speed
10 9 8 9 10 10 10 10 11 11 11 11 12 12 11 9 9 8 9 9 9 8 8 9 7 4 5 5 4 5 6 5 6 6 6 5 6 8 13 10 11 12 14 16 17 20 21 22 22 23 23 22 21 19 16 15 17 17 19 20 21 20 19 19 19 19 18 18 18 19 19 16 16 17 18 19 20 19 18 17 17 18 16 17 18
9 9 9 9 9 9 9 10 9 9 10 11 11 11 11 10 10 9 10 9 9 10 10 10 9 9 7 5 5 5 5 5 6 6 6 6 6 7 12 12 10 10 12 14 17 19 21 23 23 23 23 23 23 23 21 17 16 18 17 16 19 21 20 20 20 19 18 18 18 19 19 17 18 17 18 18 20 20 19 18 18 19 19 17 17
10 10 9 9 9 9 9 8 9 10 9 10 9 9 9 10 10 9 10 9 9 8 8 8 10 10 10 9 7 5 5 5 5 4 4 5 5 5 8 13 14 14 12 11 16 16 18 19 20 21 22 23 23 23 23 21 18 17 15 18 19 20 21 22 21 18 18 18 18 18 18 18 18 18 18 18 19 21 20 18 18 18 18 18 18
10 10 10 10 9 10 10 10 10 9 9 10 10 10 9 9 11 11 9 8 8 9 9 8 9 9 10 11 10 8 7 5 5 6 6 5 5 5 5 6 10 13 13 13 16 16 16 17 18 20 21 24 24 23 23 23 22 19 17 18 18 19 19 20 21 20 18 18 19 19 19 19 16 16 17 17 19 19 18 18 19 19 18 18 18
10 10 11 9 10 11 11 11 9 10 9 11 11 11 10 11 12 11 10 8 10 11 10 8 8 9 8 9 8 9 9 8 6 6 5 5 6 7 6 6 7 10 13 13 13 16 19 18 19 20 21 24 23 25 25 26 24 22 19 18 18 18 18 20 21 21 20 20 21 18 19 19 19 18 17 17 17 18 19 19 19 18 18 19 20
10 10 10 9 10 10 11 11 10 11 10 11 10 10 11 11 11 10 10 10 10 11 11 11 9 8 8 9 7 8 8 8 8 8 7 6 5 6 6 5 5 6 7 11 14 15 16 18 18 20 22 22 22 24 24 26 26 24 22 19 18 18 18 19 21 22 20 21 19 21 19 18 19 19 19 19 20 20 18 20 19 19 20 20 20
11 10 10 10 10 10 12 10 10 11 10 11 10 10 10 11 11 12 10 10 9 9 10 9 10 9 9 8 8 9 8 7 7 7 8 8 8 5 5 5 5 6 7 7 8 13 15 15 17 19 20 21 22 22 23 23 25 25 24 22 21 21 20 21 21 21 20 17 19 18 18 20 19 19 19 20 20 20 20 20 20 19 20 20 19
11 11 9 10 10 10 10 10 12 10 10 11 11 12 11 10 10 10 11 11 11 11 10 9 9 10 9 8 8 8 7 8 9 9 9 8 7 7 7 8 8 7 7 6 5 7 11 13 14 16 17 18 20 22 23 22 22 23 23 23 22 22 22 20 20 21 22 20 21 20 20 20 20 20 21 20 21 21 21 21 21 21 21 21 20
12 11 9 10 10 10 10 11 11 10 10 10 10 11 11 11 10 10 10 9 11 12 11 10 9 8 9 9 8 6 7 8 9 9 9 11 10 10 10 11 11 12 11 12 11 10 16 23 26 23 20 19 21 21 18 18 19 19 19 19 18 18 18 20 19 21 22 21 20 23 23 24 21 22 24 23 21 21 22 22 20 20 22 22 21
12 11 9 10 9 9 9 11 10 10 10 11 11 10 11 11 11 10 11 10 11 13 12 11 9 8 10 9 8 4 6 8 8 9 9 9 10 11 9 9 10 10 10 9 9 9 9 14 19 20 20 20 20 23 22 18 17 15 15 15 15 16 17 18 19 20 21 21 20 20 24 25 25 22 22 22 21 23 23 23 22 24 20 21 21
11 11 10 11 10 10 10 11 9 10 10 11 11 12 12 12 12 12 11 9 9 12 12 11 9 10 9 10 8 5 3 6 8 9 8 8 8 8 8 10 10 11 9 8 8 9 10 10 10 10 11 20 20 22 23 24 21 18 16 15 14 15 16 17 17 17 19 20 18 17 19 22 24 22 15 20 22 24 24 24 24 24 22 23 23
11 11 11 11 10 10 11 11 10 10 11 13 12 12 14 14 13 12 13 11 10 12 13 12 9 9 9 9 8 6 2 5 8 11 8 9 6 6 8 8 9 9 10 8 9 9 9 9 9 10 9 12 18 19 21 22 22 22 21 20 19 17 17 17 18 19 18 19 19 17 17 20 23 22 24 25 25 26 24 26 27 28 26 25 24
11 11 12 12 10 10 11 11 10 11 11 12 12 12 12 11 10 9 12 12 11 13 14 11 10 10 7 6 8 6 0 7 10 12 10 8 8 5 7 9 10 11 9 7 10 11 9 10 10 9 9 9 10 14 17 17 17 21 20 21 20 19 20 19 20 21 21 20 20 21 19 17 17 18 21 22 22 25 23 22 25 30 29 26 24
11 10 11 12 11 10 11 11 11 11 11 10 11 12 13 13 12 12 11 11 9 13 13 12 11 13 12 11 5 9 2 8 11 13 10 10 10 7 8 10 12 11 8 10 11 11 11 11 10 10 10 9 9 9 9 9 10 18 18 21 23 22 21 20 19 20 21 21 21 21 22 22 22 22 19 19 22 22 23 24 24 25 31 29 26
12 11 10 11 11 10 10 10 10 10 10 11 12 13 12 14 14 12 11 10 8 10 14 14 9 10 7 6 7 10 6 7 10 15 9 11 9 9 9 10 12 11 8 10 10 12 12 11 11 10 10 9 8 8 8 10 14 20 20 23 24 23 22 20 19 20 21 22 22 22 22 23 23 22 21 21 21 21 19 21 24 24 25 26 27
12 11 9 10 11 11 9 10 10 10 10 10 12 12 12 12 12 12 10 11 11 10 12 13 11 13 11 8 8 8 9 8 14 12 7 12 10 12 9 11 13 14 9 12 12 11 11 10 11 10 10 9 8 8 9 11 18 19 21 22 24 23 22 22 21 21 21 21 21 21 22 23 23 24 23 22 22 21 21 21 21 21 23 27 29
10 11 10 10 10 10 9 9 9 9 9 9 10 10 11 10 11 11 12 10 10 9 9 11 11 12 8 8 6 6 7 12 15 6 12 13 10 12 9 14 14 13 11 12 11 10 11 11 10 10 10 9 8 10 10 12 11 12 14 20 25 24 24 23 22 22 20 21 21 20 21 21 22 23 24 23 23 23 22 20 19 22 22 23 25
10 10 10 9 10 10 9 10 9 8 9 8 8 9 11 11 10 9 10 11 8 8 10 9 9 9 10 7 5 5 10 11 10 10 9 6 10 11 9 12 12 11 10 11 12 12 11 11 11 10 10 9 10 10 10 11 12 10 10 15 27 25 25 25 24 22 22 21 21 21 21 21 21 22 23 23 23 21 21 20 20 20 20 21 22
9 10 10 9 9 9 10 9 9 8 9 9 9 10 9 9 9 9 9 8 9 8 9 9 8 6 7 6 7 7 9 8 8 10 13 3 6 11 11 14 13 12 11 11 12 12 11 10 10 10 8 10 9 9 9 10 14 15 21 24 24 25 26 26 25 23 23 23 22 22 22 22 22 22 22 23 23 23 22 21 20 20 20 19 19
8 9 10 10 9 9 10 9 9 9 10 9 9 9 8 9 9 9 8 8 8 8 8 8 9 8 9 8 5 5 7 5 4 7 8 14 12 6 10 14 12 10 11 12 13 13 12 11 11 8 7 7 8 9 10 10 10 12 12 23 24 25 26 25 25 25 24 23 24 23 23 23 23 23 23 22 23 24 24 23 23 21 20 19 20
8 9 10 10 10 9 9 9 9 9 9 8 9 10 10 11 10 10 10 9 8 9 7 7 8 8 8 8 8 7 6 3 3 6 6 10 11 13 15 10 11 9 8 9 10 11 11 9 10 7 6 7 8 9 9 8 9 9 12 22 23 25 25 25 24 24 24 24 24 24 24 24 24 24 24 24 24 24 24 23 22 22 22 21 19
8 9 10 10 9 9 9 9 9 9 9 8 9 10 10 10 10 9 10 9 7 9 8 7 6 7 8 7 7 8 7 5 3 9 5 2 8 12 12 17 14 10 12 11 11 10 11 9 8 8 6 7 8 9 9 9 9 9 13 22 23 24 24 24 25 25 25 26 25 25 24 24 23 23 24 24 24 25 25 24 23 23 23 22 21
7 8 9 10 9 10 9 9 8 9 9 8 9 9 9 9 9 8 10 10 8 9 9 8 7 7 8 7 7 8 8 7 6 7 6 7 10 10 11 11 13 13 5 11 14 10 10 10 6 8 7 7 7 9 10 10 11 13 20 21 23 22 23 24 24 24 24 26 27 26 25 24 23 23 23 23 23 23 23 24 25 25 24 24 22
6 7 8 9 8 8 8 8 8 8 8 7 8 8 8 8 7 7 8 8 9 10 8 8 9 7 8 7 7 7 7 6 6 6 7 8 8 10 9 11 10 8 9 8 7 8 13 11 6 8 7 8 8 9 10 11 12 20 17 22 23 23 22 23 24 23 24 25 26 26 25 25 24 24 23 23 23 24 24 24 24 25 26 26 25
7 7 8 9 8 8 8 8 7 8 8 8 8 8 8 8 7 7 8 8 8 9 8 9 9 9 8 7 7 7 7 7 6 6 7 7 7 10 9 8 11 12 9 9 7 7 8 9 11 11 8 7 8 10 10 11 12 16 20 15 24 22 24 24 24 24 25 25 25 25 26 26 26 25 24 24 24 24 24 24 24 25 25 24 26
6 6 7 7 7 7 7 7 7 7 8 8 8 8 8 8 7 7 8 6 8 9 8 9 8 9 8 7 8 8 8 7 7 7 8 8 8 9 11 9 9 11 8 8 8 9 5 6 7 9 7 10 11 11 11 11 12 17 20 16 17 22 24 24 24 25 26 26 24 24 24 25 26 26 25 25 24 24 24 24 24 24 25 25 25
6 5 6 6 7 6 8 7 7 7 7 7 8 7 7 7 6 8 7 7 8 8 8 9 9 10 9 8 8 8 8 8 7 7 7 8 8 9 10 14 13 8 10 7 9 7 10 8 8 7 6 10 10 11 12 13 14 19 19 13 11 20 23 24 24 25 26 25 24 24 25 24 24 25 25 25 25 24 23 23 24 24 25 26 26
4 4 5 6 6 6 6 6 7 7 7 8 8 7 8 7 6 7 7 7 8 9 8 8 9 10 8 9 8 8 8 8 8 8 8 8 8 8 9 9 11 15 11 11 9 8 9 11 8 5 10 9 9 9 13 15 12 20 18 11 11 12 19 23 25 25 25 25 24 24 25 25 25 25 25 25 25 25 24 24 24 24 25 26 27
4 4 6 6 6 6 6 6 6 6 6 7 7 7 7 6 7 7 7 8 8 8 8 8 9 8 8 9 8 8 8 9 8 8 8 8 8 8 8 8 9 10 13 13 10 12 9 9 10 8 11 11 10 9 11 11 14 17 12 12 12 11 16 23 24 23 24 25 24 24 25 26 25 25 26 26 25 25 24 24 24 25 26 26 27
4 5 5 6 5 7 6 6 6 6 6 6 6 7 7 6 6 6 6 7 7 7 7 8 8 8 9 8 8 8 8 8 8 9 8 8 8 8 7 8 8 9 10 13 14 8 10 8 8 12 11 12 12 12 11 11 17 18 13 12 12 12 19 23 22 22 24 24 23 24 25 26 26 26 27 27 25 25 25 25 24 25 26 27 27
4 5 5 5 6 6 6 6 6 6 6 6 6 6 6 6 7 6 6 7 7 8 7 7 7 8 9 9 9 8 9 8 9 8 8 8 8 7 7 8 8 9 10 11 14 9 8 12 10 9 13 13 13 13 12 11 14 18 14 12 12 16 21 14 19 22 23 23 23 23 26 26 26 27 27 26 25 25 25 25 25 25 26 26 26
3 5 4 5 5 6 6 6 6 6 6 6 6 6 6 6 6 6 6 7 8 8 8 8 7 8 9 9 9 9 9 8 8 8 8 8 8 7 8 8 9 9 9 10 12 15 9 8 12 11 12 14 12 14 14 11 13 20 13 12 13 15 11 10 13 19 22 22 23 24 25 26 26 27 27 26 25 25 25 25 25 26 27 27 25
3 4 4 5 5 5 6 6 6 6 6 6 6 6 6 6 6 6 6 8 8 8 8 9 8 8 9 9 9 9 9 8 8 8 8 8 7 7 8 8 8 8 9 10 12 15 10 7 9 10 10 13 13 11 14 13 12 12 14 12 13 12 12 11 11 14 18 21 24 25 25 24 25 26 27 25 24 24 25 25 26 26 27 26 24
3 4 4 4 4 5 5 5 5 6 6 6 6 6 6 6 6 6 7 8 8 8 8 9 9 8 8 9 10 9 9 9 9 8 8 7 8 8 9 9 9 9 9 10 12 12 16 11 9 10 10 11 12 11 12 14 13 12 14 13 10 10 11 11 10 9 21 24 25 26 26 26 26 26 25 23 23 24 25 25 26 26 26 26 24
3 4 4 4 5 5 5 5 5 5 6 6 6 6 6 6 6 7 7 8 8 9 9 9 9 9 9 9 10 10 8 9 9 7 7 7 8 9 10 9 9 10 10 10 11 13 15 14 11 12 11 11 11 13 12 10 12 12 13 11 11 10 9 10 11 10 19 24 25 26 27 27 27 25 23 23 24 25 26 26 26 26 26 25 24
3 4 3 3 4 5 5 6 5 6 6 6 6 6 6 5 6 8 8 8 8 8 9 9 9 9 9 9 9 10 10 10 9 7 6 8 9 9 9 9 9 10 10 9 10 11 13 15 13 12 12 13 11 11 10 10 12 12 10 11 11 10 11 10 11 10 15 24 25 26 26 27 25 23 24 25 26 27 27 27 27 27 26 26 25
3 4 3 4 4 5 5 6 6 6 6 6 6 6 5 5 6 7 8 8 8 9 9 9 9 9 9 9 10 10 9 9 8 7 8 10 10 9 9 9 9 10 9 9 11 11 12 14 14 11 12 12 11 10 10 11 11 11 11 12 11 11 11 10 9 10 18 24 25 26 24 23 23 25 27 27 28 28 28 28 28 27 26 25 24
3 3 4 4 4 5 5 5 6 5 5 6 6 6 5 6 7 7 8 8 9 8 8 9 9 9 9 9 9 9 8 8 8 9 9 11 10 9 10 10 10 10 10 11 11 11 12 13 13 14 11 12 12 10 11 12 12 13 11 10 10 8 11 11 10 9 9 10 11 12 14 16 21 26 26 27 29 29 29 29 27 26 25 24 23
2 2 3 3 4 4 5 5 5 5 6 5 5 4 5 6 7 8 8 9 9 8 8 9 9 9 9 9 9 8 7 7 8 10 10 11 9 11 11 10 10 10 11 11 11 12 12 13 13 12 13 11 11 13 11 10 12 11 12 12 10 10 8 10 13 9 9 11 13 19 18 19 23 19 24 27 28 30 29 28 27 26 24 22 22
2 2 2 3 3 4 5 5 5 4 5 5 5 3 6 7 8 8 9 9 9 9 9 9 9 9 9 9 7 7 7 7 9 10 10 9 9 10 10 9 10 11 11 11 12 12 12 12 12 13 12 13 12 10 10 10 9 9 8 10 14 13 12 11 10 12 10 10 11 9 12 16 15 20 24 24 25 26 28 25 24 22 22 22 21
2 2 2 3 3 3 3 4 5 5 4 5 4 4 6 8 8 8 9 9 9 9 9 9 9 8 8 7 7 7 10 14 16 13 12 12 10 10 10 10 11 11 12 11 11 12 12 12 13 12 13 13 12 13 13 12 13 14 13 13 14 14 15 14 14 10 9 12 9 11 9 8 13 13 13 13 14 20 19 21 17 18 18 22 26
2 2 2 2 2 3 3 4 3 4 4 4 6 11 11 8 8 8 8 9 9 9 9 9 9 9 8 7 9 15 15 15 14 14 14 15 15 11 10 10 11 12 12 12 12 12 12 13 12 13 14 13 13 13 14 13 14 14 15 15 15 16 16 14 14 11 11 10 13 11 10 9 12 13 12 13 13 14 12 11 10 17 24 30 29
2 2 1 2 3 2 3 3 4 4 4 5 11 12 12 13 10 8 8 9 9 9 9 9 9 9 8 8 7 10 12 11 10 14 15 15 15 16 17 17 15 13 12 13 12 12 12 12 13 13 13 15 15 14 14 14 14 15 15 15 15 16 15 16 17 14 7 12 12 14 14 10 9 12 12 10 12 12 11 13 25 29 30 30 30
2 1 2 3 3 2 3 3 3 4 4 9 12 12 12 13 12 9 8 8 8 8 8 8 8 8 9 8 8 7 7 9 9 9 11 15 16 16 17 17 18 18 16 13 13 13 13 13 14 13 14 14 16 14 14 14 15 16 16 16 16 16 17 17 15 16 14 13 16 18 17 10 9 10 12 11 11 11 14 23 30 30 30 30 27
1 2 4 2 2 3 3 3 4 4 4 10 12 12 13 13 13 11 8 8 7 8 8 9 9 8 8 9 8 7 6 13 10 8 9 11 14 17 18 18 17 17 17 18 16 13 13 13 14 15 14 15 16 15 15 17 18 18 18 17 16 17 16 17 16 16 16 14 15 16 19 15 10 10 12 10 9 11 13 18 29 30 27 25 26
3 3 3 3 2 3 2 3 5 4 4 9 13 13 13 13 13 12 6 7 7 8 8 8 8 9 9 9 9 8 8 8 8 10 10 11 12 12 12 12 12 13 15 17 18 19 16 13 14 15 16 15 15 17 18 18 18 18 18 18 18 18 18 18 19 18 16 13 14 15 18 15 10 9 11 11 9 10 12 17 26 28 30 29 27
2 2 3 3 3 2 3 4 4 6 5 11 12 13 13 13 14 11 6 6 6 7 8 8 8 8 9 8 9 9 9 9 9 12 12 11 12 12 13 13 12 10 10 11 12 12 13 13 14 15 15 15 15 18 18 17 18 17 17 19 20 19 18 18 16 15 15 10 12 12 16 16 8 9 11 13 11 10 10 18 27 29 29 28 28
2 3 4 3 4 3 3 4 5 6 6 12 12 13 14 13 13 7 6 7 7 7 7 8 8 8 8 9 9 9 10 10 13 17 15 12 13 13 14 12 9 10 10 11 18 19 17 15 14 14 15 17 23 21 21 19 17 16 17 16 16 15 16 15 15 14 14 11 10 11 13 13 9 10 11 11 9 11 12 10 18 26 27 25 23
3 3 3 3 2 2 3 4 6 7 6 10 12 13 13 13 10 6 6 6 7 7 8 8 8 8 8 8 9 9 10 10 14 16 17 18 13 14 12 11 11 10 10 10 16 21 20 21 22 22 26 28 28 27 26 27 20 18 16 14 13 14 13 13 14 12 12 12 8 8 11 15 10 9 10 12 12 12 10 10 11 17 21 25 27
4 3 2 2 2 3 5 6 6 6 6 9 14 14 13 13 11 7 6 6 7 7 8 8 7 7 9 13 12 10 11 11 14 16 18 16 13 12 11 12 10 9 10 10 10 12 19 20 21 24 26 24 24 25 24 24 25 20 14 14 15 13 13 13 14 14 13 11 10 10 12 11 12 9 12 11 12 4 9 9 11 14 22 20 29
3 3 3 4 3 3 5 6 8 8 8 9 13 13 13 12 10 6 6 6 7 7 7 8 8 7 8 9 13 13 12 12 16 16 19 16 12 12 12 8 10 10 10 12 14 15 12 11 12 13 12 14 13 13 15 23 23 19 13 13 13 12 12 13 14 13 12 9 6 8 11 11 11 9 11 12 12 10 7 9 11 10 11 12 13
Wind_Direction
7 8 8 15 13 13 10 9 7 5 4 4 2 355 348 351 352 349 351 349 348 345 339 332 323 283 247 253 227 211 220 228 223 229 232 226 233 259 266 260 257 255 254 252 251 253 254 257 258 259 259 258 257 257 246 247 252 255 258 258 258 256 248 246 248 247 245 246 249 250 248 245 243 242 244 248 249 245 242 240 242 243 241 242 242
1 358 9 9 10 10 11 10 5 359 2 2 1 357 349 352 359 4 359 1 3 3 356 346 334 333 316 287 261 232 221 228 236 221 224 229 225 229 239 244 248 252 256 257 256 255 256 259 261 262 262 261 259 259 259 249 244 248 255 260 263 261 258 253 247 249 248 248 244 242 245 240 240 241 243 243 244 245 245 245 245 243 243 240 240
4 1 9 6 7 9 8 4 6 2 0 359 354 356 350 353 354 354 11 3 8 2 2 352 351 347 344 333 313 291 248 234 245 249 238 237 238 232 237 240 245 249 248 244 254 255 259 261 263 264 265 262 260 259 260 259 247 241 242 252 254 257 261 259 257 249 251 249 247 244 243 241 240 239 240 242 244 246 246 246 246 245 243 242 241
5 4 11 7 6 11 9 6 3 360 2 359 355 355 353 354 1 354 358 11 5 8 4 3 360 354 349 347 342 329 302 283 255 237 234 241 247 245 244 248 243 241 240 238 248 254 256 259 262 265 263 262 261 258 258 259 258 249 239 241 245 253 256 261 265 260 246 247 248 247 248 252 249 249 244 239 243 244 244 242 242 243 244 244 241
5 7 13 9 9 12 11 7 359 358 0 358 358 358 359 358 2 360 356 6 12 8 1 2 1 353 348 347 341 337 338 334 312 291 278 249 233 236 243 249 252 251 248 247 250 254 259 259 261 264 265 264 262 261 260 258 256 254 248 240 243 246 250 257 257 258 256 253 252 250 249 248 250 247 243 241 239 242 242 239 239 239 240 241 242
7 9 14 13 13 14 10 5 359 358 0 2 3 2 1 2 359 359 1 0 12 7 1 358 352 345 349 345 341 341 337 329 331 329 322 308 301 299 283 276 278 259 249 249 248 249 250 254 252 255 260 261 261 262 261 261 259 256 255 251 240 240 245 252 260 265 263 264 265 262 254 248 247 245 243 241 239 240 238 239 239 237 236 237 239
8 10 14 16 15 14 13 5 357 2 5 6 4 2 6 4 356 1 354 359 8 7 4 354 343 342 345 341 341 339 335 330 332 336 335 334 333 327 318 302 276 292 279 274 247 241 244 249 251 255 258 260 261 261 262 262 262 260 258 258 259 259 259 261 262 263 268 272 266 262 268 267 255 248 244 244 242 238 237 237 236 236 236 237 237
9 10 15 16 17 17 13 2 5 6 8 7 8 9 3 1 2 1 355 356 4 3 356 351 345 336 338 338 336 341 336 352 7 7 358 358 352 348 350 346 343 320 313 303 315 319 311 296 285 268 259 262 265 267 266 266 269 268 266 265 266 270 270 263 262 264 261 257 262 262 253 257 256 251 246 240 241 240 240 239 235 234 236 236 235
12 14 19 17 18 19 12 7 10 9 11 10 14 11 5 360 359 6 360 355 4 358 355 349 333 327 334 334 338 346 20 18 17 11 8 20 11 13 17 16 18 13 16 10 8 17 23 17 11 4 349 334 324 304 286 282 279 279 281 279 280 281 284 284 276 272 271 267 256 259 261 258 257 256 254 252 243 243 242 240 232 232 235 236 238
14 15 16 17 12 8 5 9 11 13 15 15 15 10 9 5 359 3 3 356 5 4 352 343 325 330 335 332 331 353 25 30 21 15 18 21 20 24 18 15 20 25 19 17 15 22 19 20 14 2 2 359 358 0 346 312 287 286 296 304 306 305 301 298 297 297 295 286 277 263 264 265 259 257 252 250 251 252 247 242 238 237 232 235 234
14 12 15 15 11 10 10 6 10 14 15 15 14 11 9 7 3 359 2 0 3 4 355 335 323 335 330 323 319 324 67 50 31 20 18 12 22 23 24 24 21 17 9 17 15 14 21 20 11 4 355 357 358 358 356 359 358 350 335 319 314 311 306 305 307 308 310 313 312 295 277 272 272 266 271 271 265 256 256 251 249 245 239 237 238
15 15 17 18 15 13 13 9 11 14 15 16 14 12 7 4 4 3 360 356 7 6 358 344 333 335 331 320 315 307 91 62 45 25 7 8 10 27 30 24 22 10 3 16 15 13 18 19 13 1 356 353 354 353 357 356 0 1 358 355 352 347 339 334 332 329 327 323 323 314 303 287 271 263 256 255 261 270 262 258 255 251 244 239 238
17 17 20 18 17 12 12 12 9 17 17 17 10 8 7 7 1 5 5 4 7 6 2 346 348 341 349 343 316 326 358 70 46 20 358 15 351 29 33 27 18 5 359 15 13 9 10 15 5 357 355 353 348 350 353 353 352 3 6 10 5 1 354 348 344 341 338 336 332 324 314 305 296 283 266 257 264 267 268 266 263 259 253 242 233
15 16 20 20 16 14 14 11 11 16 17 12 13 12 9 12 8 6 12 8 4 2 0 359 18 354 332 335 340 343 13 47 27 7 351 14 350 20 35 25 17 1 358 17 9 7 9 3 355 352 351 348 348 350 350 345 348 4 9 13 9 360 351 345 339 335 334 332 330 330 333 327 313 299 291 276 265 262 263 270 268 265 260 254 247
17 13 20 19 18 15 13 9 10 13 11 13 11 13 11 10 11 13 357 5 5 5 11 18 3 337 301 326 351 346 349 11 353 355 358 7 351 18 27 21 14 2 0 15 8 0 2 354 350 348 344 341 346 351 347 351 357 6 10 13 5 358 351 346 340 335 333 330 328 326 325 323 324 325 320 309 293 280 274 271 270 266 262 257 255
20 14 16 20 18 15 9 12 8 14 15 12 11 13 8 7 10 10 6 5 5 1 15 10 15 2 13 354 312 336 334 15 341 323 348 3 355 6 19 13 12 3 4 11 360 356 353 349 346 343 337 336 345 357 7 11 7 8 9 6 0 354 349 346 344 341 336 331 327 323 319 318 317 315 315 319 323 314 297 283 276 275 270 264 260
22 16 12 19 17 15 12 11 8 13 18 14 14 10 6 3 4 9 10 5 1 356 4 13 17 29 6 355 346 7 350 324 321 303 20 345 354 0 7 16 8 358 2 359 351 353 345 342 342 336 335 335 8 19 19 12 7 0 3 358 356 353 350 346 342 339 336 334 331 328 325 321 318 316 313 313 313 314 314 310 300 288 280 277 272
25 18 13 13 18 15 11 11 11 12 19 15 10 7 7 3 1 7 5 4 5 354 359 9 16 20 28 25 358 331 329 318 339 318 353 322 340 345 358 13 2 353 356 351 350 346 341 336 336 333 333 14 22 18 14 11 6 0 359 352 353 352 349 346 342 337 334 332 331 331 333 332 327 323 320 317 313 309 308 311 312 304 295 287 283
24 23 13 7 18 14 11 12 9 8 19 12 12 10 1 358 355 5 8 356 6 7 7 356 356 16 24 5 4 348 326 339 350 326 327 15 6 343 355 354 352 349 353 348 345 340 334 333 333 335 11 31 20 16 11 5 3 2 357 354 351 350 348 345 340 336 333 332 331 332 333 332 331 329 327 324 321 319 316 312 309 309 304 300 294
25 23 14 8 14 13 11 10 11 8 19 11 8 2 358 357 358 358 7 1 8 6 356 5 10 344 356 348 1 349 341 357 20 350 307 314 328 349 341 342 345 346 349 344 344 338 330 327 334 343 22 22 23 15 7 3 2 358 353 349 349 348 347 343 339 336 334 331 331 331 330 330 330 330 330 328 325 322 318 315 313 312 311 306 303
23 22 16 7 11 12 8 7 12 8 16 8 5 2 359 357 354 0 8 360 8 1 353 6 2 351 350 347 349 348 353 343 356 1 338 319 315 336 332 337 332 337 344 339 338 328 321 318 326 339 18 18 17 12 5 2 0 357 350 348 347 346 342 342 338 335 334 332 331 330 329 328 328 328 328 328 328 328 324 319 315 314 313 312 310
16 19 16 5 7 9 9 6 12 8 13 5 360 1 360 357 352 355 4 357 7 1 355 358 360 352 354 338 349 340 343 347 357 356 334 330 315 324 329 332 336 337 334 339 337 321 319 323 325 353 4 19 9 7 3 0 355 353 349 347 345 342 341 340 339 337 335 333 332 330 328 326 325 325 326 328 329 328 326 326 323 321 317 315 316
14 13 15 4 6 8 8 6 10 9 5 5 2 359 357 353 345 355 3 359 6 359 352 353 356 359 352 351 349 347 339 343 333 350 340 322 320 321 325 327 321 326 351 331 326 322 323 320 337 357 10 8 8 7 2 353 350 347 346 345 342 340 339 339 339 338 336 333 330 327 326 326 327 326 325 325 325 325 325 324 323 323 321 320 320
10 14 9 5 3 3 1 4 8 1 6 3 358 358 356 350 342 359 0 356 7 1 349 349 356 360 351 347 347 339 335 335 344 346 332 321 315 311 318 316 313 309 319 318 301 324 326 320 347 352 10 10 6 4 357 351 345 344 345 342 339 338 337 337 337 335 333 332 329 327 328 328 327 328 329 327 326 324 323 323 323 321 319 320 321
10 11 3 5 0 359 0 4 2 359 1 358 357 357 358 349 341 360 359 356 9 357 350 349 356 358 349 345 343 338 334 332 350 346 333 318 326 314 312 317 312 314 320 326 324 329 306 326 345 350 350 4 1 0 354 347 342 339 340 337 336 335 335 335 334 331 331 330 330 331 331 329 327 327 328 328 327 325 323 322 319 317 317 316 317
4 6 356 1 355 1 351 2 357 356 359 356 358 356 356 348 344 1 356 357 8 355 347 350 355 356 347 349 347 341 332 339 348 351 335 338 327 326 319 319 309 309 313 320 319 329 317 330 340 331 343 357 358 351 348 341 337 335 335 332 331 332 332 332 331 330 329 329 329 330 331 329 328 328 328 327 325 324 323 320 319 317 316 314 312
356 359 353 2 348 359 358 357 356 356 356 356 357 354 351 345 353 357 355 0 4 354 349 355 354 353 350 353 347 340 336 344 348 346 341 329 327 327 327 325 321 314 316 318 320 315 313 324 331 323 6 359 349 343 341 338 331 330 330 328 326 329 328 328 329 328 326 326 327 328 329 328 328 329 328 326 323 322 322 321 320 317 315 314 313
346 357 355 356 349 356 358 351 354 356 355 357 356 353 349 345 355 353 1 358 360 353 353 351 354 349 352 348 350 340 344 342 347 340 335 333 333 329 328 326 324 319 326 317 321 312 328 322 322 354 350 349 343 339 336 330 328 327 327 326 325 322 324 325 326 326 325 324 325 326 327 328 327 328 328 328 325 323 323 323 322 321 320 319 318
355 355 359 350 350 358 354 351 351 356 355 356 354 352 347 349 349 358 357 0 358 353 349 353 350 347 350 351 347 344 341 345 341 337 335 338 334 331 329 328 322 314 319 315 318 319 329 328 327 338 343 335 336 338 332 327 324 324 324 324 321 318 318 321 323 323 324 323 323 324 326 327 327 327 327 327 325 325 326 325 325 325 324 322 321
0 358 353 349 353 357 351 348 347 353 356 352 352 352 348 353 349 1 350 0 354 351 349 355 346 350 348 347 346 347 338 343 339 334 337 337 333 326 332 326 326 323 317 314 308 319 315 327 339 321 335 336 335 332 328 323 322 326 322 319 317 313 313 316 318 321 322 322 322 324 326 325 325 326 326 325 325 326 326 327 328 329 327 325 323
4 359 345 354 351 353 349 343 346 351 355 352 352 351 352 353 352 355 347 1 354 350 348 353 345 351 345 345 344 344 339 341 338 334 336 332 326 330 333 340 342 330 319 311 306 310 338 324 320 330 327 334 331 325 324 322 324 324 320 316 315 309 311 310 315 319 320 320 322 325 325 324 323 323 323 322 322 324 326 326 326 328 329 327 324
0 358 340 351 351 348 346 341 346 352 352 352 349 353 350 352 348 346 351 358 353 349 347 350 347 348 343 343 342 342 339 340 334 335 331 324 328 345 352 344 331 323 319 313 302 303 325 314 312 324 331 322 327 321 321 322 321 321 315 315 312 311 318 316 311 313 317 321 324 325 323 322 321 321 320 319 320 323 325 325 324 326 326 325 323
15 341 355 347 351 345 343 341 351 347 349 349 348 354 348 347 349 345 355 353 349 347 345 345 347 345 342 341 337 338 336 336 333 329 326 326 345 353 346 330 324 324 323 317 311 306 308 318 313 319 322 324 316 322 318 317 318 320 321 321 322 327 323 320 312 309 319 327 327 323 321 320 320 318 317 317 319 322 323 322 322 322 323 320 319
7 338 352 350 342 345 341 340 350 346 344 348 346 350 342 345 346 353 352 350 345 343 343 342 344 341 340 336 335 335 335 337 329 328 326 342 350 349 333 328 326 322 326 320 311 307 310 318 316 311 316 316 309 318 316 317 319 322 321 321 321 323 321 315 321 331 334 330 324 322 322 321 318 317 315 317 320 321 321 320 319 318 318 318 317
358 338 348 346 345 343 342 339 347 345 344 345 347 343 339 343 346 353 349 343 341 340 340 339 338 335 337 334 334 333 334 332 328 325 332 346 348 333 326 326 322 320 322 318 316 313 311 312 317 317 317 319 316 314 315 315 315 317 316 317 322 320 315 323 331 331 328 323 322 322 320 317 315 315 318 321 322 322 321 319 317 316 315 315 316
347 342 340 343 346 340 344 343 342 346 341 343 344 335 337 343 356 348 342 337 336 335 334 333 332 334 333 331 329 332 329 329 326 329 335 344 335 326 327 322 321 322 319 319 317 307 310 309 317 316 318 315 315 310 317 314 315 316 317 314 317 314 321 326 325 324 320 323 322 319 315 313 314 321 327 327 325 323 320 317 314 314 312 312 313
347 337 340 347 343 341 343 340 337 338 338 341 336 332 338 359 353 339 333 332 330 330 329 327 328 328 327 326 324 327 326 324 323 331 334 334 327 327 322 323 322 318 318 317 313 310 307 308 309 312 313 312 309 313 316 319 319 315 317 317 316 319 321 323 321 316 321 322 318 314 311 316 328 333 331 328 323 320 317 314 311 310 309 309 310
338 328 344 344 337 336 339 331 333 331 337 334 332 327 351 353 340 331 328 327 326 324 326 324 323 323 322 321 321 320 319 321 326 328 326 325 325 323 323 322 321 319 319 315 312 312 310 307 308 311 316 316 317 318 324 325 321 319 316 313 313 324 325 322 318 322 321 315 310 309 317 330 332 328 325 320 317 315 313 310 307 306 305 306 308
305 332 334 339 330 332 326 325 327 332 330 328 320 333 351 339 333 329 326 325 323 324 320 321 321 320 319 317 318 315 316 321 321 321 321 321 319 321 322 322 321 321 317 316 315 314 311 309 310 309 312 315 316 319 320 324 320 312 317 321 323 326 319 318 317 318 312 304 307 316 323 325 322 320 318 316 313 311 308 306 303 301 300 302 304
308 319 327 326 324 324 313 321 323 323 323 320 319 336 333 331 328 326 325 321 322 319 318 316 318 316 316 316 311 314 316 309 312 316 318 318 318 320 320 320 319 317 317 314 315 313 313 312 311 313 315 316 319 313 314 320 311 315 322 330 322 319 321 318 316 314 310 306 314 316 321 315 316 315 315 312 309 306 304 302 299 297 299 302 304
302 306 312 320 313 311 308 318 319 320 316 309 304 311 319 328 327 325 322 320 318 318 317 316 316 317 315 314 314 312 312 315 317 317 318 319 320 318 318 318 318 317 314 313 313 314 312 311 311 313 314 315 316 320 323 323 325 320 321 323 311 313 315 315 314 304 310 311 318 314 310 325 318 313 311 310 308 304 299 295 297 301 301 309 312
265 286 289 290 298 297 314 310 314 313 311 305 305 313 323 324 325 323 321 317 317 315 315 316 315 316 316 317 317 317 317 318 320 320 320 320 318 315 315 318 315 314 314 316 317 315 313 313 313 314 314 312 314 319 314 316 315 317 317 317 316 316 313 313 305 315 316 329 319 311 310 317 308 302 304 302 301 303 301 306 312 315 317 316 312
250 267 293 289 281 295 299 301 304 305 307 304 303 314 321 323 325 323 320 317 313 314 314 314 314 316 316 315 313 315 316 317 316 318 322 321 318 317 315 313 315 318 319 316 311 310 312 310 309 310 308 308 311 312 314 315 316 315 315 316 314 314 314 316 316 312 332 322 316 310 304 309 303 300 296 301 305 308 316 317 317 317 313 311 309
250 259 280 268 269 280 288 294 299 297 298 298 307 314 319 321 325 324 319 315 316 313 312 312 312 311 311 313 313 311 313 313 316 324 320 316 316 315 315 317 319 316 310 306 308 312 311 310 310 309 308 309 310 316 316 317 318 315 316 313 312 312 312 311 309 309 314 323 317 309 304 309 298 291 305 308 307 313 313 312 313 310 308 306 313
238 256 251 268 279 282 290 294 297 298 290 300 305 311 315 320 322 323 318 319 318 311 308 307 306 307 309 310 311 309 308 315 318 313 311 313 314 314 317 318 315 311 310 311 315 319 322 317 312 310 312 314 313 312 316 317 316 312 310 308 310 308 307 304 305 304 309 317 311 305 299 303 315 318 298 305 313 304 303 308 304 303 308 317 320
232 241 260 260 267 273 277 287 288 289 293 294 300 307 314 318 320 321 336 327 311 305 303 302 301 304 305 307 308 308 306 309 309 310 308 309 311 317 317 314 310 310 317 324 325 321 316 309 307 304 306 309 306 308 312 313 311 309 308 306 307 305 303 300 301 301 305 308 301 302 296 303 311 310 305 301 303 301 298 301 311 318 319 315 314
229 257 269 271 273 268 271 281 289 289 286 292 299 307 313 317 318 327 333 316 304 299 299 297 298 300 302 303 302 302 305 307 306 305 307 310 315 315 313 310 314 325 329 327 321 318 312 307 302 301 305 308 307 308 309 308 305 303 303 302 302 300 299 300 294 295 294 295 298 302 293 298 313 307 296 298 301 301 317 318 313 310 307 307 304
246 255 249 245 249 258 274 283 282 282 283 293 300 306 310 314 319 329 317 307 302 298 298 299 298 297 297 298 300 300 302 302 300 305 308 311 313 313 310 316 327 324 325 322 315 311 307 304 304 304 307 310 310 307 305 304 303 304 300 296 295 298 299 295 293 300 296 298 290 287 292 292 302 297 295 293 312 310 302 294 304 302 299 301 321
236 246 248 251 257 271 278 274 272 278 282 291 296 302 307 310 318 315 312 304 298 298 297 300 298 295 295 295 296 297 300 300 301 305 308 315 315 310 315 321 323 328 321 321 311 308 307 305 307 313 312 310 308 307 308 310 309 308 305 301 298 301 300 300 297 300 294 298 293 299 295 289 300 302 310 306 301 292 294 300 296 291 312 323 325
232 230 255 278 282 266 265 268 270 274 279 289 293 296 300 305 311 314 307 299 297 297 296 297 296 295 293 296 298 300 297 295 300 305 312 316 310 312 321 324 333 327 319 313 305 306 309 314 316 313 310 309 310 312 312 310 310 311 307 302 303 306 298 293 296 299 298 297 301 298 287 291 308 324 305 295 294 279 292 296 313 325 321 321 321
231 244 255 251 251 255 254 265 273 276 279 279 286 293 297 301 305 303 301 300 296 296 298 297 295 293 296 295 298 298 297 300 304 308 311 312 308 317 326 344 331 320 313 308 310 314 326 329 316 315 308 313 314 311 309 310 311 312 303 296 299 298 295 296 297 299 293 282 287 314 304 298 299 302 310 312 302 291 296 316 306 308 320 313 301